Change the Weather History Date:

Friday, June 21, 2013

  Actual Average (KDAY) Record (KDAY)
Temperature  
Mean Temperature 73 °F 72 °F  
Max Temperature 84 °F 82 °F 98 °F (1988)
Min Temperature 62 °F 63 °F 48 °F (1963)
Degree Days  
Heating Degree Days 0 0  
Month to date heating degree days 22  
Since 1 June heating degree days 22  
Since 1 July heating degree days 5642  
Cooling Degree Days 8 7  
Month to date cooling degree days 115  
Year to date cooling degree days 185  
Since 1 June cooling degree days 115  
Growing Degree Days 23 (Base 50)    
Moisture  
Dew Point 56 °F    
Average Humidity 55    
Maximum Humidity 77    
Minimum Humidity 30    
Precipitation  
Precipitation 0.00 in 0.14 in 1.62 in (1942)
Month to date precipitation 2.95  
Year to date precipitation 19.99  
Snow  
Snow 0.00 in 0.00 in 0.00 in ()
Month to date snowfall 0.0  
Since 1 June snowfall 0.0  
Since 1 July snowfall 23.3  
Snow Depth -    
Sea Level Pressure  
Sea Level Pressure 30.19 in    
Wind  
Wind Speed 7 mph (SSE)    
Max Wind Speed 14 mph    
Max Gust Speed 18 mph    
Visibility 10 miles    
Events      
T = Trace of Precipitation, MM = Missing Value Source: NWS Daily Summary

Daily Weather History Graph

Daily Weather History Graph

Search for Another Location

Airport or City:

Trip Planner

Search our weather history database for the weather conditions in past years. The results will help you decide how hot, cold, wet, or windy it might be!

Date:

Astronomy

Jun. 21, 2013 Rise Set
Actual Time 6:05 AM EDT 9:08 PM EDT
Civil Twilight 5:32 AM EDT 9:42 PM EDT
Nautical Twilight 4:50 AM EDT 10:24 PM EDT
Astronomical Twilight 4:00 AM EDT 11:13 PM EDT
Moon 7:18 PM EDT (6/21) 4:20 AM EDT (6/21)
Length of Visible Light 16h 09m
Length of Day
15h 03m
Waxing Gibbous, 95% of the Moon is Illuminated
Jun 21
Waxing Gibbous
Jun 23
Full
Jun 30
Last Quarter
Jul 8
New
Jul 15
First Quarter

Hourly Weather History & Observations

Time (EDT) Temp. Heat Index Dew Point Humidity Pressure Visibility Wind Dir Wind Speed Gust Speed Precip Events Conditions
12:00 AM 66.2 °F - 57.2 °F 73% 30.20 in 10.0 mi SE 5.8 mph - 0.00 in   Clear
12:20 AM 66.2 °F - 57.2 °F 73% 30.20 in 10.0 mi SSE 6.9 mph - 0.00 in   Clear
12:40 AM 66.2 °F - 57.2 °F 73% 30.20 in 10.0 mi SE 6.9 mph - 0.00 in   Clear
1:00 AM 66.2 °F - 55.4 °F 68% 30.20 in 10.0 mi SE 5.8 mph - 0.00 in   Clear
1:20 AM 66.2 °F - 55.4 °F 68% 30.20 in 10.0 mi SE 6.9 mph - 0.00 in   Clear
1:40 AM 66.2 °F - 55.4 °F 68% 30.20 in 10.0 mi SE 5.8 mph - 0.00 in   Clear
2:00 AM 66.2 °F - 55.4 °F 68% 30.21 in 10.0 mi SE 5.8 mph - 0.00 in   Clear
2:25 AM 66.2 °F - 55.4 °F 68% 30.20 in 10.0 mi SE 5.8 mph - 0.00 in   Clear
2:40 AM 64.4 °F - 55.4 °F 73% 30.20 in 10.0 mi SE 8.1 mph - 0.00 in   Clear
3:00 AM 64.4 °F - 53.6 °F 68% 30.20 in 10.0 mi SE 5.8 mph - 0.00 in   Clear
3:25 AM 64.4 °F - 53.6 °F 68% 30.20 in 10.0 mi SE 5.8 mph - 0.00 in   Clear
3:40 AM 64.4 °F - 53.6 °F 68% 30.20 in 10.0 mi SE 5.8 mph - 0.00 in   Clear
4:00 AM 64.4 °F - 53.6 °F 68% 30.20 in 10.0 mi SE 5.8 mph - 0.00 in   Clear
4:25 AM 64.4 °F - 53.6 °F 68% 30.21 in 10.0 mi SE 4.6 mph - 0.00 in   Clear
4:40 AM 64.4 °F - 53.6 °F 68% 30.20 in 10.0 mi SE 3.5 mph - 0.00 in   Clear
5:00 AM 62.6 °F - 55.4 °F 77% 30.21 in 10.0 mi SE 3.5 mph - 0.00 in   Clear
5:20 AM 62.6 °F - 55.4 °F 77% 30.20 in 10.0 mi SSE 9.2 mph - 0.00 in   Clear
5:40 AM 62.6 °F - 55.4 °F 77% 30.20 in 10.0 mi SE 5.8 mph - 0.00 in   Clear
6:05 AM 62.6 °F - 55.4 °F 77% 30.20 in 10.0 mi SSE 6.9 mph - 0.00 in   Clear
6:20 AM 62.6 °F - 55.4 °F 77% 30.20 in 10.0 mi SE 4.6 mph - 0.00 in   Clear
6:40 AM 64.4 °F - 55.4 °F 73% 30.21 in 10.0 mi SE 5.8 mph - 0.00 in   Clear
7:00 AM 64.4 °F - 55.4 °F 73% 30.21 in 10.0 mi SE 5.8 mph - 0.00 in   Clear
7:20 AM 66.2 °F - 57.2 °F 73% 30.21 in 10.0 mi SE 4.6 mph - 0.00 in   Clear
7:40 AM 69.8 °F - 57.2 °F 64% 30.22 in 10.0 mi SSE 6.9 mph - 0.00 in   Partly Cloudy
8:00 AM 69.8 °F - 57.2 °F 64% 30.22 in 10.0 mi SSE 6.9 mph - 0.00 in   Clear
8:20 AM 71.6 °F - 57.2 °F 60% 30.21 in 10.0 mi SSE 5.8 mph - 0.00 in   Clear
8:40 AM 71.6 °F - 57.2 °F 60% 30.22 in 10.0 mi South 5.8 mph - 0.00 in   Clear
9:00 AM 73.4 °F - 57.2 °F 57% 30.23 in 10.0 mi South 3.5 mph - 0.00 in   Clear
9:20 AM 75.2 °F - 57.2 °F 53% 30.22 in 10.0 mi South 5.8 mph - 0.00 in   Clear
9:40 AM 77.0 °F - 59.0 °F 54% 30.22 in 10.0 mi South 6.9 mph - 0.00 in   Clear
10:00 AM 78.8 °F - 59.0 °F 51% 30.22 in 10.0 mi SSE 6.9 mph - 0.00 in   Clear
10:20 AM 78.8 °F - 57.2 °F 47% 30.22 in 10.0 mi SSE 5.8 mph - 0.00 in   Partly Cloudy
10:40 AM 78.8 °F - 59.0 °F 51% 30.23 in 10.0 mi SSE 6.9 mph - 0.00 in   Clear
11:00 AM 80.6 °F 80.8 °F 57.2 °F 45% 30.23 in 10.0 mi South 6.9 mph - 0.00 in   Clear
11:20 AM 80.6 °F 80.3 °F 53.6 °F 39% 30.23 in 10.0 mi SE 5.8 mph - 0.00 in   Scattered Clouds
11:45 AM 80.6 °F 80.5 °F 55.4 °F 42% 30.22 in 10.0 mi South 6.9 mph - 0.00 in   Mostly Cloudy
12:00 PM 82.4 °F 81.7 °F 55.4 °F 39% 30.23 in 10.0 mi South 9.2 mph - 0.00 in   Scattered Clouds
12:20 PM 82.4 °F 81.7 °F 55.4 °F 39% 30.23 in 10.0 mi South 10.4 mph - 0.00 in   Clear
12:45 PM 82.4 °F 81.7 °F 55.4 °F 39% 30.23 in 10.0 mi SSE 6.9 mph - 0.00 in   Clear
1:00 PM 82.4 °F 81.7 °F 55.4 °F 39% 30.22 in 10.0 mi SSE 11.5 mph - 0.00 in   Clear
1:20 PM 82.4 °F 81.7 °F 55.4 °F 39% 30.21 in 10.0 mi SSE 11.5 mph - 0.00 in   Clear
1:45 PM 82.4 °F 81.4 °F 53.6 °F 37% 30.21 in 10.0 mi SSE 10.4 mph 18.4 mph 0.00 in   Partly Cloudy
2:00 PM 84.2 °F - 51.8 °F 33% 30.21 in 10.0 mi SSE 11.5 mph 17.3 mph 0.00 in   Partly Cloudy
2:20 PM 84.2 °F 82.8 °F 53.6 °F 35% 30.20 in 10.0 mi SSE 10.4 mph - 0.00 in   Clear
2:45 PM 84.2 °F - 51.8 °F 33% 30.19 in 10.0 mi SSE 12.7 mph 17.3 mph 0.00 in   Partly Cloudy
3:00 PM 84.2 °F - 51.8 °F 33% 30.18 in 10.0 mi South 13.8 mph - 0.00 in   Clear
3:20 PM 84.2 °F - 51.8 °F 33% 30.19 in 10.0 mi South 12.7 mph 16.1 mph 0.00 in   Partly Cloudy
3:40 PM 84.2 °F - 50.0 °F 30% 30.18 in 10.0 mi SSE 10.4 mph - 0.00 in   Clear
4:00 PM 84.2 °F - 51.8 °F 33% 30.17 in 10.0 mi SSW 9.2 mph - 0.00 in   Partly Cloudy
4:20 PM 84.2 °F - 51.8 °F 33% 30.16 in 10.0 mi SSE 5.8 mph 16.1 mph 0.00 in   Scattered Clouds
4:40 PM 84.2 °F - 51.8 °F 33% 30.16 in 10.0 mi SSE 11.5 mph - 0.00 in   Scattered Clouds
5:05 PM 84.2 °F 83.0 °F 55.4 °F 37% 30.16 in 10.0 mi WSW 8.1 mph - 0.00 in   Partly Cloudy
5:20 PM 84.2 °F 83.0 °F 55.4 °F 37% 30.16 in 10.0 mi South 6.9 mph - 0.00 in   Scattered Clouds
5:40 PM 84.2 °F 83.0 °F 55.4 °F 37% 30.15 in 10.0 mi SSW 5.8 mph - 0.00 in   Scattered Clouds
6:05 PM 84.2 °F 83.0 °F 55.4 °F 37% 30.15 in 10.0 mi SSW 8.1 mph - 0.00 in   Scattered Clouds
6:20 PM 82.4 °F 81.7 °F 55.4 °F 39% 30.14 in 10.0 mi South 6.9 mph - 0.00 in   Partly Cloudy
6:40 PM 82.4 °F 82.0 °F 57.2 °F 42% 30.15 in 10.0 mi SSW 4.6 mph - 0.00 in   Partly Cloudy
7:00 PM 82.4 °F 82.0 °F 57.2 °F 42% 30.15 in 10.0 mi SSW 6.9 mph - 0.00 in   Scattered Clouds
7:20 PM 80.6 °F 81.1 °F 59.0 °F 48% 30.15 in 10.0 mi South 4.6 mph - 0.00 in   Mostly Cloudy
7:45 PM 80.6 °F 81.5 °F 60.8 °F 51% 30.15 in 10.0 mi South 5.8 mph - 0.00 in   Scattered Clouds
8:00 PM 80.6 °F 81.5 °F 60.8 °F 51% 30.15 in 10.0 mi South 4.6 mph - 0.00 in   Scattered Clouds
8:20 PM 78.8 °F - 60.8 °F 54% 30.14 in 10.0 mi SSE 5.8 mph - 0.00 in   Mostly Cloudy
8:45 PM 77.0 °F - 60.8 °F 57% 30.13 in 10.0 mi SSE 5.8 mph - 0.00 in   Scattered Clouds
9:00 PM 75.2 °F - 60.8 °F 61% 30.13 in 10.0 mi SSE 6.9 mph - 0.00 in   Scattered Clouds
9:20 PM 75.2 °F - 60.8 °F 61% 30.12 in 10.0 mi SSE 6.9 mph - 0.00 in   Scattered Clouds
9:45 PM 73.4 °F - 60.8 °F 65% 30.11 in 10.0 mi SSE 4.6 mph - 0.00 in   Partly Cloudy
10:00 PM 73.4 °F - 60.8 °F 65% 30.11 in 10.0 mi SSE 8.1 mph - 0.00 in   Partly Cloudy
10:20 PM 73.4 °F - 60.8 °F 65% 30.11 in 10.0 mi SSE 8.1 mph - 0.00 in   Partly Cloudy
10:45 PM 71.6 °F - 60.8 °F 69% 30.11 in 10.0 mi SSE 8.1 mph - 0.00 in   Clear
11:00 PM 71.6 °F - 60.8 °F 69% 30.11 in 10.0 mi SSE 5.8 mph - 0.00 in   Partly Cloudy
11:20 PM 71.6 °F - 60.8 °F 69% 30.12 in 10.0 mi SSE 6.9 mph - 0.00 in   Clear
11:45 PM 69.8 °F - 60.8 °F 73% 30.13 in 10.0 mi SSE 6.9 mph - 0.00 in   Clear